Regional Weather Roundup
Issued by NWS Midland/Odessa, TX

Skip options and go directly to product.
Home | Oldest Version | Previous Version | Current Version | All | Text Only | Save Text | Print | Product List | Glossary Off

Skip product version selection by date and time.   

411
ASUS44 KMAF 262310
RWRMAF
MIDLAND AREA WEATHER ROUNDUP
NATIONAL WEATHER SERVICE MIDLAND TX
600 PM CDT FRI AUG 26 2016

...IN SOUTHWEST TEXAS AND SOUTHEAST NEW MEXICO...

CITY           SKY/WX    TMP DP  RH WIND       PRES   REMARKS
ALPINE         PTSUNNY   79  58  47 SE5       30.16F
ANDREWS        NOT AVBL
ARTESIA        SUNNY     84  61  45 S8        30.04F
BIG SPRING     CLOUDY    78  68  70 SE9       30.07F
CARLSBAD       SUNNY     85  58  39 E8        30.01F
DRYDEN           N/A     78  66  66 N16G25    29.99R
FORT STOCKTON  CLOUDY    80  62  54 E6        30.05S
GUAD PASS      MOSUNNY   75  58  55 NE16      30.17F
HOBBS          MOSUNNY   79  64  61 E15       30.07S
MARFA          MOSUNNY  N/A N/A N/A SE9       30.14F
MIDLAND AIRPK  PTSUNNY   80  66  63 E7        30.05F HAZE
MIDLAND INTL   CLOUDY    78  66  66 E9        30.04F
ODESSA         CLOUDY    79  64  60 E13       30.06F
PECOS          CLOUDY    84  63  48 E9        30.00S
PRESIDIO       NOT AVBL
SEMINOLE       MOSUNNY   81  62  52 CALM      30.07F
SNYDER           N/A     74  67  78 CALM      30.05S
WINK           CLOUDY    85  63  47 E12       30.00F
$$
...OTHER STATIONS IN TEXAS...

CITY           SKY/WX    TMP DP  RH WIND       PRES   REMARKS
ABILENE        SUNNY     90  62  39 SE7       30.00S
AMARILLO       MOSUNNY   83  57  41 S13       30.06S
AUSTIN         CLOUDY    86  73  65 SE14      29.94S
BROWNSVILLE    MOSUNNY   91  73  55 E13       29.90S
CORPUS CHRISTI PTSUNNY   91  74  57 E16       29.92S HX 100
DALLAS FTW     CLOUDY    87  69  54 E12       29.98R
DEL RIO        SUNNY     91  66  43 SE8       29.92R
EL PASO        MOSUNNY   88  49  25 VRB3      30.01F
HOUSTON INT    TSTM      74  71  91 E9        29.98R FOG
LUBBOCK        MOSUNNY   81  58  45 S15       30.05F
SAN ANGELO     LGT RAIN  80  68  66 NW14      30.01R
SAN ANTONIO    MOSUNNY   90  69  50 SE10      29.95S
WACO           TSTM      73  70  90 E28G46    30.03R VSB 1/2
WICHITA FALLS  NOT AVBL
$$
...OTHER LOCATIONS IN NEW MEXICO...

CITY           SKY/WX    TMP DP  RH WIND       PRES   REMARKS
ALAMAGORDO     CLOUDY    84  50  30 S18       30.04F
ALBUQUERQUE    PTSUNNY   77  45  32 N8        30.13F
CANNON AFB     MOSUNNY   84  55  36 SE9       30.08S
CLOVIS         PTSUNNY   84  55  37 SE10      30.08S
HOLLOMAN AFB   NOT AVBL
ROSWELL        SUNNY     82  58  43 S3        30.04S
RUIDOSO          N/A     68  48  49 CALM      30.26R
SANTA FE       CLOUDY    71  47  42 N5        30.19F
TRUTH OR CONSE CLOUDY    75  49  39 W17       30.11S
TUCUMCARI      PTSUNNY   83  54  36 W14       30.05R THUNDER
$$

USA.gov is the U.S. government's official web portal to all federal, state and local government web resources and services.